Precipitable_Water
0.32 0.24 0.25 0.26 0.35 0.50 0.58 0.61 0.64 0.59 0.48 0.46 0.56 0.66 0.78 0.71 0.79 0.74 0.82 0.91 1.13 1.01 0.99 1.01 1.03 1.03 1.12 1.17 1.22 1.27 1.30 1.23 1.18 1.12 1.10 1.10 1.06 1.06 1.08 1.10 1.10 1.09 1.13 1.22 1.25 1.23 1.28 1.32 1.39 1.49 1.54 1.56 1.55 1.57 1.59 1.57 1.54 1.54 1.52 1.51 1.43 1.43 1.42 1.36 1.41 1.49 1.45 1.39 1.40 1.41 1.38 1.35 1.41 1.46 1.45 1.48 1.50 1.50 1.55 1.53 1.53 1.51 1.54 1.56 1.60 1.62
0.26 0.23 0.25 0.31 0.32 0.37 0.44 0.53 0.54 0.52 0.48 0.37 0.40 0.50 0.64 0.65 0.63 0.59 0.73 0.91 1.00 0.90 0.91 1.01 0.97 1.02 1.11 1.18 1.19 1.24 1.23 1.16 1.15 1.14 1.12 1.09 1.05 1.05 1.06 1.08 1.09 1.11 1.16 1.22 1.22 1.23 1.26 1.30 1.37 1.45 1.49 1.53 1.46 1.50 1.55 1.53 1.53 1.53 1.55 1.50 1.47 1.44 1.43 1.36 1.36 1.43 1.47 1.47 1.41 1.37 1.38 1.39 1.40 1.38 1.36 1.39 1.44 1.47 1.51 1.47 1.51 1.49 1.56 1.55 1.58 1.62
0.20 0.17 0.26 0.31 0.29 0.29 0.31 0.34 0.41 0.40 0.35 0.33 0.35 0.39 0.43 0.50 0.63 0.75 0.83 0.80 0.96 0.91 0.85 0.92 0.89 0.98 1.11 1.17 1.22 1.20 1.20 1.24 1.25 1.21 1.19 1.16 1.08 1.02 1.04 1.08 1.10 1.10 1.06 1.14 1.19 1.20 1.22 1.27 1.34 1.39 1.45 1.51 1.54 1.50 1.50 1.53 1.52 1.51 1.54 1.52 1.51 1.46 1.40 1.39 1.34 1.38 1.42 1.48 1.50 1.47 1.44 1.48 1.43 1.45 1.46 1.46 1.44 1.49 1.42 1.36 1.43 1.50 1.54 1.51 1.58 1.62
0.16 0.19 0.22 0.28 0.27 0.25 0.26 0.29 0.29 0.32 0.32 0.30 0.32 0.33 0.38 0.51 0.52 0.57 0.70 0.84 0.83 0.76 0.70 0.78 0.81 0.91 1.10 1.22 1.21 1.25 1.23 1.26 1.32 1.29 1.26 1.25 1.18 1.07 1.01 1.04 1.06 1.06 1.03 1.07 1.13 1.13 1.18 1.22 1.28 1.35 1.42 1.47 1.52 1.49 1.48 1.48 1.47 1.47 1.53 1.52 1.53 1.48 1.43 1.41 1.40 1.32 1.42 1.45 1.50 1.55 1.54 1.57 1.52 1.46 1.51 1.53 1.48 1.45 1.42 1.31 1.40 1.49 1.51 1.50 1.57 1.60
0.16 0.19 0.21 0.20 0.21 0.22 0.23 0.24 0.25 0.27 0.27 0.30 0.30 0.34 0.37 0.46 0.54 0.50 0.69 0.72 0.75 0.89 0.90 0.85 0.87 0.85 0.96 1.04 1.13 1.22 1.30 1.27 1.29 1.32 1.29 1.28 1.27 1.24 1.14 1.08 1.10 1.06 1.03 1.05 1.11 1.13 1.14 1.17 1.21 1.29 1.39 1.45 1.45 1.45 1.46 1.47 1.47 1.45 1.46 1.53 1.53 1.49 1.45 1.43 1.43 1.34 1.37 1.39 1.36 1.44 1.45 1.50 1.50 1.47 1.44 1.42 1.34 1.37 1.43 1.39 1.37 1.44 1.53 1.53 1.62 1.59
0.15 0.18 0.20 0.17 0.17 0.18 0.19 0.19 0.20 0.24 0.24 0.28 0.28 0.31 0.37 0.41 0.44 0.59 0.63 0.63 0.64 0.65 0.82 0.71 0.58 0.70 0.93 0.97 1.03 1.19 1.24 1.21 1.31 1.28 1.29 1.29 1.24 1.22 1.12 1.08 1.11 1.09 1.08 1.06 1.09 1.13 1.15 1.17 1.22 1.27 1.36 1.39 1.42 1.43 1.48 1.50 1.52 1.48 1.45 1.51 1.54 1.52 1.49 1.44 1.43 1.41 1.37 1.29 1.27 1.26 1.22 1.20 1.22 1.19 1.20 1.19 1.25 1.29 1.29 1.35 1.39 1.47 1.47 1.51 1.56 1.58
0.24 0.21 0.22 0.20 0.17 0.16 0.16 0.16 0.19 0.20 0.21 0.23 0.28 0.31 0.35 0.41 0.43 0.56 0.60 0.54 0.45 0.45 0.77 0.69 0.55 0.56 0.85 0.86 0.95 1.14 1.19 1.22 1.32 1.28 1.31 1.34 1.29 1.20 1.15 1.10 1.08 1.08 1.05 1.06 1.11 1.15 1.15 1.17 1.19 1.24 1.29 1.37 1.40 1.44 1.49 1.51 1.53 1.51 1.49 1.48 1.52 1.51 1.50 1.49 1.46 1.42 1.38 1.28 1.23 1.20 1.17 1.17 1.13 1.11 1.19 1.30 1.38 1.37 1.38 1.46 1.44 1.47 1.47 1.50 1.51 1.55
0.25 0.25 0.22 0.22 0.20 0.19 0.18 0.15 0.17 0.16 0.16 0.17 0.29 0.30 0.32 0.38 0.44 0.53 0.55 0.54 0.48 0.58 0.60 0.71 0.71 0.61 0.65 0.86 0.96 1.10 1.08 1.14 1.17 1.24 1.29 1.36 1.36 1.26 1.20 1.16 1.12 1.09 1.08 1.03 1.05 1.12 1.16 1.18 1.19 1.20 1.26 1.34 1.38 1.47 1.48 1.49 1.53 1.51 1.51 1.46 1.45 1.52 1.52 1.50 1.48 1.43 1.40 1.29 1.24 1.20 1.16 1.15 1.13 1.15 1.17 1.25 1.34 1.43 1.44 1.44 1.47 1.47 1.46 1.47 1.49 1.56
0.29 0.24 0.22 0.23 0.22 0.19 0.18 0.18 0.21 0.17 0.14 0.26 0.31 0.26 0.27 0.36 0.46 0.51 0.52 0.52 0.56 0.50 0.42 0.63 0.75 0.56 0.58 0.82 0.99 1.03 0.95 1.00 1.11 1.20 1.27 1.33 1.38 1.39 1.31 1.23 1.18 1.14 1.10 1.06 1.02 1.05 1.12 1.16 1.20 1.23 1.26 1.32 1.39 1.45 1.46 1.46 1.52 1.56 1.56 1.52 1.45 1.47 1.51 1.53 1.50 1.45 1.39 1.37 1.32 1.27 1.24 1.20 1.22 1.24 1.27 1.28 1.31 1.35 1.41 1.39 1.43 1.43 1.45 1.46 1.46 1.47
0.27 0.28 0.28 0.26 0.24 0.23 0.23 0.20 0.18 0.18 0.14 0.26 0.32 0.31 0.32 0.40 0.47 0.51 0.52 0.52 0.56 0.49 0.39 0.52 0.66 0.47 0.53 0.81 0.91 0.95 0.96 1.05 1.10 1.20 1.31 1.36 1.37 1.40 1.42 1.36 1.27 1.23 1.16 1.10 1.06 1.05 1.11 1.17 1.21 1.26 1.29 1.32 1.37 1.44 1.48 1.50 1.53 1.57 1.58 1.52 1.46 1.43 1.46 1.53 1.54 1.49 1.42 1.42 1.40 1.30 1.28 1.26 1.25 1.29 1.29 1.27 1.22 1.26 1.31 1.31 1.34 1.37 1.40 1.43 1.43 1.44
0.31 0.30 0.33 0.28 0.26 0.26 0.25 0.24 0.22 0.19 0.21 0.40 0.38 0.41 0.38 0.40 0.48 0.52 0.58 0.57 0.49 0.39 0.44 0.59 0.62 0.57 0.50 0.73 0.85 0.93 0.91 1.07 1.15 1.25 1.36 1.43 1.43 1.45 1.47 1.45 1.37 1.28 1.22 1.12 1.09 1.09 1.10 1.16 1.20 1.25 1.26 1.31 1.36 1.43 1.47 1.48 1.50 1.55 1.55 1.52 1.46 1.46 1.45 1.49 1.53 1.53 1.47 1.46 1.45 1.36 1.28 1.22 1.23 1.25 1.25 1.20 1.19 1.21 1.24 1.22 1.29 1.31 1.34 1.39 1.43 1.43
0.29 0.30 0.30 0.31 0.31 0.32 0.27 0.24 0.28 0.24 0.38 0.37 0.38 0.35 0.43 0.41 0.41 0.38 0.44 0.52 0.39 0.37 0.58 0.66 0.68 0.70 0.43 0.69 0.90 1.01 1.13 1.17 1.17 1.16 1.20 1.27 1.34 1.47 1.51 1.51 1.46 1.39 1.30 1.19 1.11 1.10 1.12 1.15 1.18 1.23 1.25 1.29 1.34 1.39 1.44 1.46 1.48 1.52 1.54 1.53 1.46 1.48 1.45 1.45 1.49 1.52 1.53 1.50 1.49 1.45 1.37 1.24 1.22 1.20 1.19 1.19 1.16 1.19 1.22 1.24 1.28 1.35 1.36 1.36 1.39 1.42
0.28 0.28 0.32 0.30 0.34 0.30 0.30 0.22 0.24 0.30 0.41 0.35 0.37 0.39 0.30 0.38 0.29 0.25 0.34 0.32 0.33 0.34 0.59 0.63 0.63 0.56 0.54 0.76 0.96 1.02 1.12 1.17 1.23 1.26 1.28 1.34 1.35 1.41 1.51 1.57 1.53 1.46 1.40 1.30 1.16 1.12 1.14 1.15 1.16 1.18 1.23 1.29 1.33 1.35 1.39 1.43 1.45 1.48 1.52 1.53 1.46 1.45 1.47 1.45 1.47 1.46 1.51 1.53 1.52 1.49 1.44 1.36 1.26 1.22 1.19 1.20 1.18 1.21 1.23 1.26 1.27 1.31 1.30 1.35 1.34 1.37
0.28 0.29 0.31 0.31 0.33 0.35 0.30 0.25 0.27 0.30 0.36 0.33 0.32 0.34 0.27 0.24 0.25 0.20 0.25 0.31 0.36 0.44 0.59 0.65 0.70 0.51 0.67 0.83 1.04 1.03 1.14 1.19 1.22 1.28 1.32 1.36 1.34 1.36 1.48 1.56 1.57 1.52 1.45 1.42 1.29 1.15 1.15 1.17 1.18 1.19 1.22 1.27 1.30 1.33 1.36 1.40 1.42 1.45 1.47 1.51 1.49 1.47 1.49 1.48 1.45 1.46 1.47 1.51 1.55 1.56 1.52 1.45 1.38 1.28 1.24 1.21 1.18 1.23 1.27 1.29 1.28 1.29 1.31 1.32 1.34 1.37
0.22 0.25 0.30 0.30 0.29 0.36 0.35 0.30 0.27 0.25 0.36 0.33 0.36 0.32 0.31 0.24 0.24 0.21 0.22 0.22 0.28 0.38 0.51 0.67 0.54 0.52 0.49 0.66 0.97 1.03 1.15 1.18 1.23 1.27 1.28 1.30 1.36 1.42 1.47 1.53 1.61 1.58 1.50 1.48 1.44 1.28 1.19 1.19 1.19 1.20 1.24 1.26 1.28 1.30 1.33 1.36 1.39 1.42 1.43 1.47 1.48 1.50 1.50 1.47 1.44 1.46 1.45 1.48 1.54 1.57 1.58 1.54 1.47 1.39 1.32 1.26 1.23 1.26 1.26 1.27 1.25 1.28 1.35 1.34 1.37 1.40
0.23 0.27 0.34 0.37 0.35 0.37 0.33 0.35 0.31 0.27 0.26 0.35 0.34 0.32 0.26 0.26 0.29 0.22 0.32 0.30 0.30 0.34 0.40 0.55 0.53 0.67 0.69 0.92 0.99 1.06 1.10 1.13 1.19 1.24 1.29 1.25 1.35 1.43 1.39 1.42 1.50 1.61 1.61 1.54 1.49 1.43 1.31 1.26 1.23 1.24 1.26 1.26 1.27 1.29 1.31 1.33 1.35 1.35 1.39 1.42 1.44 1.48 1.52 1.49 1.45 1.45 1.46 1.47 1.52 1.56 1.56 1.57 1.55 1.52 1.46 1.38 1.36 1.35 1.34 1.29 1.25 1.26 1.30 1.35 1.41 1.45
0.22 0.23 0.32 0.34 0.39 0.37 0.36 0.39 0.35 0.31 0.24 0.35 0.30 0.25 0.28 0.40 0.33 0.30 0.27 0.35 0.37 0.30 0.31 0.49 0.56 0.65 0.84 0.91 0.99 1.04 1.01 1.03 1.15 1.20 1.26 1.28 1.32 1.41 1.42 1.44 1.50 1.57 1.65 1.62 1.55 1.49 1.45 1.40 1.33 1.27 1.27 1.27 1.28 1.29 1.28 1.31 1.32 1.31 1.33 1.36 1.39 1.44 1.52 1.53 1.49 1.46 1.48 1.50 1.48 1.50 1.54 1.57 1.58 1.56 1.50 1.46 1.42 1.38 1.38 1.36 1.31 1.27 1.28 1.31 1.36 1.43
0.26 0.25 0.33 0.33 0.34 0.37 0.42 0.40 0.39 0.37 0.32 0.30 0.26 0.32 0.37 0.39 0.40 0.31 0.24 0.35 0.29 0.25 0.29 0.39 0.44 0.52 0.62 0.52 0.96 0.92 0.88 0.94 1.04 1.15 1.24 1.32 1.36 1.33 1.41 1.47 1.50 1.52 1.61 1.71 1.69 1.60 1.53 1.50 1.47 1.36 1.32 1.32 1.31 1.31 1.31 1.30 1.34 1.37 1.36 1.34 1.34 1.38 1.42 1.49 1.52 1.47 1.48 1.49 1.51 1.51 1.51 1.53 1.57 1.59 1.57 1.56 1.54 1.50 1.46 1.42 1.39 1.34 1.30 1.32 1.38 1.38
0.26 0.22 0.29 0.31 0.32 0.38 0.40 0.39 0.38 0.39 0.41 0.34 0.35 0.45 0.30 0.33 0.28 0.32 0.26 0.24 0.24 0.23 0.25 0.33 0.39 0.49 0.63 0.65 0.83 0.76 0.82 0.88 1.00 1.13 1.20 1.24 1.30 1.35 1.36 1.48 1.56 1.56 1.55 1.61 1.63 1.61 1.57 1.56 1.55 1.51 1.42 1.39 1.38 1.38 1.39 1.38 1.40 1.42 1.42 1.41 1.39 1.37 1.42 1.48 1.53 1.55 1.53 1.52 1.52 1.55 1.54 1.50 1.49 1.55 1.60 1.62 1.63 1.64 1.57 1.52 1.49 1.42 1.41 1.43 1.42 1.43
0.30 0.22 0.26 0.32 0.30 0.33 0.35 0.33 0.28 0.35 0.42 0.41 0.38 0.34 0.38 0.32 0.32 0.34 0.34 0.30 0.32 0.27 0.26 0.30 0.37 0.41 0.82 0.81 0.83 0.78 0.88 0.94 0.93 1.04 1.14 1.21 1.29 1.34 1.39 1.47 1.51 1.54 1.53 1.53 1.63 1.66 1.61 1.59 1.61 1.61 1.54 1.49 1.44 1.42 1.43 1.46 1.48 1.45 1.48 1.48 1.44 1.45 1.47 1.50 1.51 1.54 1.53 1.54 1.52 1.52 1.57 1.57 1.52 1.49 1.51 1.58 1.60 1.61 1.62 1.62 1.61 1.59 1.55 1.50 1.50 1.47
0.30 0.27 0.23 0.29 0.32 0.29 0.25 0.37 0.34 0.37 0.35 0.39 0.38 0.38 0.37 0.33 0.39 0.35 0.40 0.36 0.30 0.27 0.26 0.28 0.28 0.39 0.77 0.98 0.88 0.85 0.92 0.95 0.95 0.93 1.10 1.19 1.27 1.36 1.41 1.45 1.53 1.58 1.60 1.61 1.59 1.65 1.70 1.65 1.63 1.64 1.64 1.58 1.56 1.55 1.55 1.53 1.52 1.52 1.56 1.52 1.52 1.47 1.48 1.47 1.50 1.52 1.55 1.57 1.56 1.54 1.53 1.56 1.56 1.50 1.48 1.47 1.54 1.57 1.61 1.64 1.65 1.66 1.67 1.67 1.58 1.56
0.30 0.29 0.23 0.27 0.25 0.28 0.38 0.42 0.42 0.41 0.41 0.42 0.40 0.40 0.42 0.35 0.31 0.24 0.24 0.36 0.32 0.29 0.27 0.28 0.26 0.39 0.70 0.94 0.96 0.90 0.97 0.99 1.02 0.99 1.04 1.16 1.23 1.33 1.40 1.48 1.56 1.58 1.65 1.68 1.69 1.67 1.67 1.70 1.72 1.72 1.72 1.67 1.60 1.57 1.56 1.55 1.57 1.55 1.54 1.55 1.55 1.53 1.51 1.49 1.51 1.53 1.58 1.60 1.61 1.58 1.55 1.56 1.60 1.60 1.54 1.44 1.44 1.47 1.53 1.57 1.61 1.64 1.67 1.65 1.67 1.63
0.29 0.29 0.25 0.25 0.27 0.32 0.41 0.42 0.43 0.46 0.48 0.48 0.47 0.43 0.43 0.42 0.39 0.33 0.24 0.27 0.32 0.32 0.36 0.33 0.30 0.38 0.72 0.90 0.98 0.99 0.98 1.04 1.09 1.07 1.06 1.14 1.29 1.34 1.38 1.45 1.54 1.59 1.62 1.63 1.66 1.66 1.67 1.70 1.71 1.73 1.73 1.71 1.68 1.62 1.60 1.62 1.57 1.56 1.57 1.58 1.57 1.54 1.53 1.55 1.56 1.61 1.65 1.66 1.63 1.62 1.61 1.59 1.57 1.59 1.57 1.50 1.44 1.40 1.41 1.46 1.54 1.62 1.60 1.61 1.65 1.68
0.33 0.27 0.26 0.25 0.29 0.32 0.38 0.40 0.43 0.44 0.42 0.43 0.43 0.45 0.43 0.43 0.44 0.41 0.41 0.43 0.32 0.34 0.32 0.33 0.30 0.42 0.76 0.86 0.94 0.97 1.01 1.08 1.16 1.15 1.10 1.17 1.27 1.36 1.42 1.47 1.49 1.51 1.56 1.63 1.68 1.60 1.59 1.64 1.69 1.74 1.73 1.73 1.73 1.73 1.72 1.69 1.68 1.67 1.64 1.64 1.62 1.58 1.60 1.62 1.64 1.64 1.64 1.66 1.66 1.66 1.65 1.60 1.57 1.55 1.56 1.52 1.49 1.43 1.41 1.42 1.46 1.54 1.56 1.59 1.62 1.64
0.24 0.32 0.23 0.25 0.25 0.30 0.31 0.36 0.35 0.40 0.41 0.38 0.47 0.52 0.50 0.47 0.46 0.46 0.44 0.43 0.31 0.34 0.34 0.30 0.25 0.44 0.71 0.85 0.81 0.90 0.94 1.02 1.07 1.16 1.20 1.16 1.28 1.37 1.40 1.44 1.49 1.51 1.51 1.55 1.58 1.61 1.59 1.53 1.51 1.59 1.71 1.77 1.78 1.77 1.77 1.82 1.75 1.69 1.69 1.67 1.64 1.63 1.68 1.69 1.70 1.67 1.67 1.67 1.65 1.67 1.65 1.64 1.62 1.55 1.53 1.54 1.54 1.49 1.48 1.46 1.43 1.47 1.49 1.52 1.55 1.61
0.26 0.30 0.24 0.21 0.20 0.20 0.21 0.23 0.28 0.33 0.37 0.43 0.50 0.48 0.47 0.52 0.45 0.42 0.34 0.40 0.28 0.44 0.41 0.34 0.29 0.59 0.76 0.82 0.78 0.81 0.88 0.94 1.08 1.13 1.22 1.25 1.30 1.32 1.36 1.40 1.43 1.46 1.45 1.47 1.50 1.54 1.56 1.60 1.61 1.60 1.59 1.68 1.76 1.78 1.79 1.82 1.82 1.77 1.76 1.76 1.75 1.71 1.71 1.72 1.73 1.70 1.67 1.67 1.64 1.65 1.67 1.65 1.65 1.63 1.59 1.57 1.56 1.56 1.56 1.56 1.52 1.48 1.48 1.48 1.46 1.54
0.29 0.27 0.25 0.24 0.23 0.24 0.30 0.34 0.37 0.36 0.38 0.35 0.44 0.45 0.51 0.50 0.54 0.47 0.44 0.45 0.38 0.46 0.43 0.44 0.54 0.60 0.68 0.72 0.73 0.80 0.89 0.89 1.01 1.09 1.14 1.21 1.28 1.35 1.38 1.38 1.40 1.43 1.44 1.43 1.46 1.50 1.54 1.55 1.57 1.62 1.67 1.71 1.78 1.83 1.83 1.82 1.81 1.82 1.83 1.84 1.80 1.76 1.75 1.78 1.77 1.72 1.68 1.67 1.68 1.69 1.68 1.69 1.66 1.66 1.67 1.65 1.63 1.63 1.60 1.59 1.60 1.57 1.51 1.53 1.48 1.45
0.29 0.26 0.27 0.24 0.24 0.25 0.26 0.27 0.30 0.30 0.32 0.38 0.41 0.45 0.50 0.49 0.50 0.41 0.43 0.42 0.56 0.53 0.39 0.63 0.61 0.55 0.66 0.76 0.84 0.85 0.93 0.96 1.03 1.08 1.12 1.20 1.25 1.30 1.35 1.38 1.40 1.41 1.45 1.45 1.45 1.48 1.50 1.54 1.55 1.56 1.59 1.62 1.71 1.81 1.84 1.87 1.89 1.85 1.85 1.85 1.86 1.87 1.83 1.85 1.83 1.80 1.71 1.67 1.65 1.63 1.66 1.71 1.79 1.79 1.76 1.76 1.77 1.76 1.72 1.67 1.64 1.64 1.63 1.59 1.53 1.49
0.30 0.26 0.31 0.22 0.25 0.24 0.25 0.25 0.29 0.31 0.34 0.38 0.39 0.42 0.43 0.52 0.51 0.46 0.54 0.52 0.63 0.60 0.53 0.67 0.70 0.62 0.73 0.81 0.88 0.93 1.00 1.03 1.06 1.12 1.18 1.24 1.29 1.33 1.33 1.33 1.36 1.36 1.37 1.38 1.40 1.44 1.48 1.48 1.54 1.61 1.65 1.69 1.69 1.77 1.88 1.88 1.87 1.89 1.88 1.90 1.94 1.90 1.90 1.96 1.92 1.87 1.84 1.79 1.69 1.66 1.72 1.81 1.87 1.87 1.82 1.82 1.79 1.74 1.76 1.81 1.82 1.74 1.70 1.65 1.57 1.53
0.27 0.27 0.30 0.25 0.25 0.25 0.26 0.27 0.29 0.28 0.35 0.34 0.39 0.40 0.42 0.46 0.54 0.49 0.52 0.57 0.56 0.55 0.59 0.63 0.68 0.71 0.82 0.87 0.94 1.00 1.09 1.10 1.11 1.19 1.22 1.21 1.24 1.27 1.29 1.28 1.30 1.30 1.31 1.33 1.36 1.40 1.44 1.47 1.50 1.56 1.61 1.66 1.68 1.71 1.81 1.90 1.90 1.89 1.87 1.88 1.91 1.91 1.92 2.02 1.93 1.82 1.85 1.82 1.80 1.79 1.84 1.90 1.92 1.87 1.82 1.84 1.82 1.86 1.88 1.82 1.93 1.92 1.81 1.74 1.66 1.59
0.21 0.32 0.30 0.31 0.23 0.26 0.29 0.29 0.30 0.30 0.31 0.32 0.40 0.37 0.39 0.45 0.48 0.54 0.56 0.55 0.57 0.57 0.59 0.60 0.63 0.68 0.89 1.00 1.02 1.09 1.15 1.15 1.11 1.11 1.15 1.20 1.23 1.25 1.24 1.20 1.25 1.29 1.31 1.32 1.35 1.38 1.42 1.45 1.48 1.53 1.55 1.59 1.62 1.64 1.67 1.76 1.79 1.83 1.87 1.90 1.92 1.94 1.98 2.02 2.02 1.93 1.89 1.86 1.89 1.92 1.93 1.93 1.95 2.00 1.93 1.89 1.88 1.92 1.98 2.00 2.02 1.94 1.88 1.82 1.75 1.69
0.21 0.30 0.26 0.26 0.18 0.24 0.30 0.27 0.30 0.30 0.30 0.29 0.34 0.38 0.40 0.40 0.45 0.50 0.55 0.57 0.53 0.52 0.55 0.58 0.55 0.62 0.82 0.95 1.03 1.06 1.07 1.08 1.05 1.04 1.13 1.20 1.24 1.22 1.20 1.17 1.28 1.30 1.33 1.32 1.34 1.37 1.40 1.44 1.46 1.50 1.53 1.55 1.57 1.60 1.62 1.67 1.78 1.83 1.85 1.92 1.95 1.96 2.01 1.97 1.90 1.85 1.88 1.92 1.95 1.96 1.98 1.99 1.99 2.03 2.04 2.03 1.98 1.97 2.00 1.95 1.95 1.89 1.88 1.84 1.82 1.75
0.26 0.26 0.23 0.27 0.17 0.20 0.30 0.24 0.26 0.27 0.28 0.25 0.28 0.34 0.44 0.44 0.48 0.54 0.54 0.54 0.57 0.56 0.51 0.49 0.52 0.68 0.78 0.91 0.90 0.96 1.02 1.06 1.06 1.09 1.14 1.25 1.26 1.21 1.18 1.18 1.26 1.31 1.33 1.31 1.31 1.33 1.37 1.41 1.44 1.47 1.51 1.55 1.56 1.57 1.61 1.65 1.65 1.72 1.84 1.88 1.94 2.01 1.98 1.96 1.93 1.88 1.85 1.89 1.92 1.94 1.96 1.97 1.93 1.95 1.99 2.01 2.02 2.05 2.04 2.01 2.00 1.94 1.87 1.80 1.88 1.89
0.25 0.22 0.23 0.25 0.15 0.23 0.26 0.26 0.26 0.23 0.18 0.25 0.48 0.53 0.48 0.49 0.51 0.50 0.55 0.56 0.56 0.61 0.65 0.66 0.65 0.75 0.78 0.81 0.79 0.88 1.02 1.03 1.05 1.16 1.33 1.34 1.31 1.23 1.22 1.23 1.25 1.28 1.31 1.32 1.31 1.31 1.36 1.41 1.44 1.47 1.51 1.53 1.58 1.62 1.67 1.71 1.70 1.73 1.80 1.88 1.96 1.96 1.95 1.92 1.93 1.94 1.94 1.95 1.94 1.95 1.96 1.96 1.93 1.94 1.97 2.00 2.00 2.02 2.02 2.02 1.97 1.96 1.94 1.96 1.94 1.93
0.23 0.23 0.24 0.25 0.19 0.22 0.29 0.23 0.21 0.17 0.21 0.43 0.53 0.51 0.49 0.52 0.52 0.52 0.58 0.56 0.60 0.66 0.66 0.69 0.71 0.75 0.78 0.84 0.88 0.91 0.99 1.12 1.13 1.15 1.26 1.38 1.38 1.26 1.21 1.18 1.20 1.22 1.23 1.25 1.25 1.27 1.31 1.37 1.42 1.46 1.49 1.51 1.56 1.61 1.64 1.67 1.72 1.75 1.77 1.80 1.81 1.84 1.84 1.87 1.88 1.91 1.95 1.97 1.98 1.97 1.96 1.96 1.95 1.95 1.99 2.01 2.01 2.01 2.01 2.02 2.03 2.02 2.05 2.07 2.06 1.97
0.24 0.22 0.26 0.22 0.23 0.23 0.17 0.24 0.15 0.19 0.37 0.38 0.45 0.51 0.57 0.57 0.57 0.53 0.51 0.58 0.65 0.70 0.72 0.71 0.75 0.85 0.85 0.83 0.89 0.95 1.01 1.03 1.09 1.16 1.25 1.32 1.37 1.33 1.24 1.18 1.20 1.22 1.20 1.21 1.21 1.22 1.24 1.30 1.36 1.43 1.48 1.54 1.56 1.58 1.61 1.63 1.70 1.71 1.72 1.78 1.79 1.81 1.83 1.83 1.82 1.85 1.90 1.91 1.95 1.97 1.99 1.99 1.98 2.01 2.02 2.03 2.06 2.05 2.06 2.11 2.15 2.13 2.12 2.13 2.12 2.07
0.25 0.24 0.25 0.25 0.26 0.19 0.24 0.24 0.22 0.30 0.23 0.29 0.38 0.45 0.46 0.46 0.53 0.47 0.45 0.60 0.66 0.69 0.72 0.73 0.74 0.81 0.85 0.89 0.92 0.94 0.97 0.98 0.92 1.03 1.21 1.28 1.33 1.33 1.31 1.27 1.25 1.24 1.23 1.22 1.20 1.18 1.21 1.26 1.32 1.40 1.46 1.49 1.53 1.55 1.59 1.65 1.68 1.68 1.69 1.70 1.75 1.78 1.79 1.80 1.78 1.81 1.87 1.89 1.93 1.95 1.99 2.03 2.02 2.05 2.08 2.12 2.11 2.10 2.10 2.10 2.13 2.21 2.23 2.12 2.07 2.06
0.27 0.24 0.25 0.21 0.27 0.23 0.22 0.21 0.22 0.21 0.19 0.36 0.48 0.56 0.57 0.58 0.57 0.60 0.49 0.52 0.63 0.70 0.74 0.78 0.76 0.79 0.78 0.84 0.90 0.94 0.97 0.85 0.77 0.87 1.08 1.19 1.25 1.29 1.32 1.30 1.27 1.24 1.22 1.19 1.18 1.14 1.12 1.16 1.23 1.32 1.37 1.41 1.45 1.50 1.56 1.61 1.62 1.63 1.62 1.64 1.69 1.71 1.73 1.73 1.72 1.76 1.80 1.84 1.90 1.95 1.96 1.99 1.98 2.03 2.12 2.12 2.08 2.08 2.12 2.17 2.19 2.19 2.20 2.10 2.07 2.03
0.27 0.25 0.31 0.23 0.27 0.26 0.23 0.19 0.19 0.18 0.24 0.38 0.45 0.50 0.60 0.60 0.61 0.62 0.45 0.42 0.65 0.67 0.73 0.77 0.78 0.82 0.81 0.81 0.84 0.88 0.79 0.67 0.72 0.91 1.05 1.14 1.18 1.24 1.23 1.24 1.23 1.20 1.17 1.12 1.08 1.04 1.03 1.06 1.12 1.20 1.29 1.34 1.36 1.43 1.47 1.53 1.55 1.52 1.52 1.57 1.59 1.61 1.61 1.63 1.67 1.72 1.75 1.81 1.85 1.87 1.88 1.90 1.87 1.86 1.95 2.01 2.03 2.09 2.10 2.12 2.11 2.23 2.18 2.14 2.10 2.08
0.23 0.21 0.22 0.21 0.23 0.24 0.23 0.22 0.20 0.26 0.26 0.41 0.46 0.50 0.61 0.68 0.65 0.54 0.32 0.37 0.60 0.72 0.77 0.79 0.79 0.81 0.82 0.87 0.86 0.82 0.76 0.67 0.79 0.92 1.08 1.13 1.17 1.20 1.20 1.18 1.17 1.14 1.09 1.07 1.06 1.02 1.01 1.04 1.02 1.03 1.12 1.21 1.26 1.36 1.43 1.45 1.46 1.47 1.45 1.47 1.50 1.50 1.52 1.56 1.62 1.70 1.75 1.76 1.78 1.78 1.76 1.76 1.77 1.77 1.78 1.78 1.77 1.81 1.88 2.13 2.23 2.16 2.13 2.15 2.13 2.11
0.22 0.25 0.23 0.22 0.25 0.27 0.23 0.23 0.26 0.26 0.37 0.36 0.41 0.50 0.58 0.67 0.57 0.36 0.30 0.51 0.67 0.71 0.79 0.80 0.82 0.82 0.86 0.84 0.87 0.79 0.85 0.95 0.98 1.04 1.09 1.12 1.13 1.15 1.16 1.14 1.11 1.06 1.01 0.99 1.00 1.01 0.96 0.95 0.96 0.96 1.00 1.11 1.19 1.21 1.28 1.36 1.38 1.39 1.41 1.40 1.37 1.38 1.44 1.51 1.55 1.58 1.62 1.66 1.63 1.60 1.59 1.62 1.64 1.67 1.71 1.75 1.75 1.81 1.87 1.90 1.99 2.04 1.98 1.91 1.94 2.03
0.26 0.26 0.27 0.26 0.25 0.25 0.28 0.24 0.25 0.30 0.47 0.47 0.46 0.50 0.59 0.46 0.33 0.34 0.56 0.73 0.74 0.72 0.77 0.82 0.83 0.84 0.85 0.86 0.88 0.90 0.95 1.00 1.03 1.05 1.06 1.07 1.08 1.13 1.15 1.12 1.07 0.99 0.96 0.95 0.98 0.96 0.90 0.87 0.87 0.89 0.94 1.00 1.11 1.17 1.17 1.18 1.21 1.26 1.30 1.30 1.27 1.30 1.35 1.39 1.42 1.44 1.44 1.44 1.44 1.44 1.43 1.42 1.45 1.50 1.57 1.64 1.70 1.76 1.76 1.81 1.85 1.88 1.93 1.95 1.91 1.88
0.29 0.25 0.25 0.24 0.27 0.30 0.31 0.26 0.25 0.20 0.47 0.48 0.47 0.48 0.54 0.38 0.46 0.62 0.71 0.76 0.76 0.74 0.73 0.77 0.82 0.84 0.89 0.85 0.90 0.96 0.98 0.98 1.00 1.01 1.03 1.05 1.05 1.07 1.04 0.97 0.94 0.95 0.96 0.96 0.93 0.92 0.89 0.85 0.84 0.85 0.87 0.93 0.97 1.04 1.08 1.07 1.07 1.11 1.16 1.17 1.22 1.26 1.27 1.28 1.28 1.29 1.29 1.31 1.31 1.31 1.32 1.34 1.34 1.37 1.42 1.46 1.53 1.56 1.60 1.71 1.74 1.78 1.83 1.86 1.87 1.83
0.38 0.26 0.29 0.30 0.36 0.27 0.27 0.24 0.25 0.37 0.44 0.53 0.44 0.40 0.52 0.54 0.68 0.71 0.71 0.71 0.74 0.74 0.74 0.74 0.79 0.84 0.89 0.90 0.86 0.93 0.95 0.95 0.97 1.00 1.01 1.02 1.01 1.00 0.93 0.92 0.95 0.96 0.95 0.93 0.94 0.93 0.89 0.85 0.84 0.83 0.85 0.88 0.93 0.98 1.01 1.01 0.96 0.98 1.01 1.07 1.18 1.20 1.22 1.24 1.25 1.25 1.23 1.21 1.20 1.20 1.22 1.23 1.25 1.30 1.38 1.43 1.47 1.50 1.54 1.58 1.64 1.69 1.71 1.74 1.71 1.67
0.41 0.32 0.41 0.30 0.43 0.31 0.31 0.42 0.56 0.53 0.52 0.55 0.55 0.54 0.60 0.65 0.71 0.73 0.72 0.70 0.69 0.70 0.79 0.74 0.76 0.79 0.85 0.85 0.86 0.90 0.89 0.94 0.94 0.96 0.95 0.97 0.97 0.92 0.90 0.94 0.93 0.91 0.90 0.90 0.90 0.92 0.90 0.86 0.83 0.81 0.82 0.84 0.86 0.91 0.96 0.99 0.97 0.96 0.96 1.04 1.10 1.08 1.10 1.11 1.12 1.13 1.13 1.15 1.16 1.15 1.15 1.18 1.22 1.25 1.30 1.36 1.41 1.41 1.47 1.51 1.54 1.52 1.57 1.60 1.60 1.62
0.53 0.47 0.45 0.35 0.40 0.46 0.46 0.48 0.53 0.52 0.53 0.55 0.56 0.61 0.58 0.62 0.68 0.69 0.67 0.66 0.69 0.73 0.74 0.74 0.73 0.76 0.78 0.80 0.81 0.87 0.87 0.89 0.88 0.92 0.94 0.93 0.90 0.88 0.90 0.90 0.93 0.93 0.91 0.90 0.91 0.92 0.90 0.90 0.88 0.85 0.83 0.84 0.85 0.84 0.87 0.92 0.95 0.94 1.00 1.07 1.07 1.06 1.05 1.03 1.00 0.98 0.99 1.01 1.03 1.06 1.09 1.10 1.11 1.15 1.21 1.25 1.32 1.38 1.43 1.46 1.49 1.48 1.52 1.55 1.55 1.55
0.46 0.43 0.39 0.33 0.49 0.33 0.33 0.45 0.47 0.50 0.54 0.55 0.57 0.63 0.68 0.66 0.66 0.68 0.67 0.67 0.67 0.71 0.73 0.72 0.76 0.75 0.78 0.75 0.79 0.78 0.83 0.84 0.83 0.85 0.87 0.83 0.80 0.83 0.86 0.88 0.91 0.92 0.89 0.89 0.93 0.94 0.92 0.91 0.89 0.88 0.87 0.85 0.87 0.85 0.83 0.84 0.88 0.92 0.98 1.05 1.09 1.08 1.08 1.06 1.03 0.98 0.96 0.94 0.95 0.96 0.95 0.94 0.95 0.97 1.01 1.08 1.15 1.26 1.33 1.41 1.45 1.52 1.53 1.52 1.52 1.53
0.41 0.47 0.40 0.42 0.44 0.34 0.47 0.49 0.56 0.60 0.61 0.63 0.62 0.60 0.62 0.66 0.65 0.70 0.70 0.70 0.69 0.71 0.71 0.69 0.71 0.71 0.74 0.75 0.77 0.79 0.79 0.83 0.81 0.79 0.77 0.76 0.78 0.80 0.82 0.85 0.87 0.90 0.93 0.97 0.99 0.99 0.95 0.93 0.90 0.89 0.89 0.90 0.92 0.90 0.86 0.84 0.87 0.92 0.95 0.98 1.06 1.10 1.07 1.04 1.04 1.02 1.00 0.99 0.97 0.96 0.95 0.91 0.89 0.88 0.86 0.87 0.91 0.95 1.00 1.09 1.19 1.28 1.38 1.42 1.49 1.48
0.56 0.47 0.34 0.42 0.38 0.51 0.54 0.56 0.55 0.57 0.58 0.60 0.64 0.65 0.66 0.65 0.64 0.65 0.68 0.67 0.68 0.63 0.63 0.66 0.70 0.71 0.76 0.77 0.81 0.79 0.78 0.80 0.82 0.77 0.74 0.74 0.74 0.75 0.78 0.82 0.87 0.90 0.94 0.94 0.95 0.98 0.96 0.96 0.93 0.90 0.89 0.91 0.94 0.94 0.91 0.86 0.83 0.87 0.91 0.94 0.98 1.01 1.00 1.00 1.00 0.99 0.99 1.01 1.01 1.00 1.00 0.98 0.94 0.90 0.87 0.85 0.85 0.85 0.87 0.87 0.90 0.94 0.98 1.07 1.19 1.29
0.45 0.37 0.47 0.41 0.36 0.40 0.40 0.47 0.52 0.42 0.44 0.52 0.59 0.66 0.67 0.66 0.63 0.63 0.65 0.65 0.65 0.64 0.64 0.65 0.68 0.75 0.78 0.79 0.79 0.79 0.78 0.80 0.80 0.77 0.70 0.70 0.71 0.73 0.74 0.76 0.80 0.83 0.86 0.90 0.92 0.95 0.96 0.97 0.95 0.92 0.90 0.90 0.93 0.93 0.92 0.91 0.87 0.83 0.83 0.88 0.92 0.94 0.92 0.92 0.92 0.91 0.89 0.91 0.92 0.94 0.94 0.94 0.93 0.94 0.95 0.93 0.89 0.87 0.88 0.93 0.94 0.93 0.92 0.90 0.94 0.97
0.44 0.48 0.45 0.37 0.36 0.39 0.50 0.59 0.55 0.55 0.56 0.57 0.59 0.65 0.67 0.66 0.65 0.62 0.64 0.66 0.69 0.70 0.71 0.69 0.67 0.70 0.73 0.78 0.83 0.81 0.81 0.81 0.80 0.78 0.71 0.68 0.71 0.73 0.75 0.75 0.76 0.80 0.83 0.88 0.90 0.92 0.93 0.94 0.95 0.91 0.88 0.87 0.88 0.86 0.86 0.86 0.87 0.84 0.79 0.76 0.76 0.77 0.79 0.79 0.79 0.81 0.81 0.80 0.76 0.74 0.83 0.83 0.82 0.84 0.84 0.89 0.91 0.90 0.87 0.86 0.91 0.94 0.95 0.93 0.93 0.92
Wind_Speed
11 11 13 13 12 12 13 13 11 10 10 9 8 8 7 6 5 3 3 2 3 5 5 6 7 8 9 9 10 11 12 12 13 14 14 13 13 13 13 13 12 12 12 12 12 12 11 10 10 9 9 8 8 8 8 8 8 8 8 8 8 8 9 9 10 11 11 11 11 11 11 11 10 10 11 11 11 11 11 12 13 13 12 12 12 12
11 12 12 12 11 11 12 12 13 12 12 11 10 9 8 7 6 4 3 3 3 5 5 5 7 9 10 10 10 11 12 12 13 14 14 14 14 14 14 14 13 12 12 12 13 12 12 11 10 10 9 9 9 9 9 8 9 9 9 9 9 9 9 9 10 10 11 11 11 11 10 10 10 10 10 10 10 11 11 12 12 12 12 12 12 12
10 12 12 11 11 12 12 13 14 14 13 13 12 10 9 8 7 6 5 5 4 5 6 6 7 9 10 10 11 12 12 12 13 14 14 14 15 14 14 14 14 13 13 13 13 13 12 12 11 11 10 10 10 9 9 9 9 9 9 9 9 9 9 9 10 10 11 11 11 10 10 10 10 10 10 10 10 10 11 12 12 12 12 12 12 12
8 9 10 11 12 13 14 14 14 14 14 15 14 13 11 10 10 8 7 7 6 6 6 6 7 9 10 11 12 13 13 12 13 14 14 14 15 15 15 15 14 14 14 14 14 14 13 13 12 11 10 10 10 10 10 10 10 10 9 9 9 10 10 10 10 11 11 11 11 10 10 10 9 10 10 10 10 10 10 11 11 11 12 12 11 11
7 6 7 10 12 14 15 14 15 15 15 16 16 15 12 11 11 10 8 9 8 8 7 6 7 8 9 11 12 12 13 13 13 14 14 15 15 15 15 15 15 15 15 14 14 14 14 13 13 12 12 11 11 11 10 10 10 10 10 10 10 10 10 10 10 11 11 11 11 10 10 10 9 10 10 10 10 10 10 10 10 11 11 11 11 11
6 5 7 9 10 13 14 14 15 16 15 15 16 17 16 13 12 11 10 10 10 9 8 7 7 6 7 9 11 12 13 13 14 15 15 16 16 16 16 16 16 16 15 15 15 15 14 14 14 13 13 12 12 11 11 11 10 10 10 10 10 10 10 10 11 11 11 11 11 11 11 10 10 10 10 10 10 10 10 10 10 10 11 11 10 10
5 5 7 8 9 11 12 14 15 15 16 15 14 15 16 15 14 13 12 12 11 9 8 8 8 7 7 7 9 11 12 13 14 15 16 16 16 17 17 17 17 17 16 16 16 16 16 15 15 14 14 13 13 12 12 11 11 10 10 11 11 10 10 10 11 11 11 11 11 11 11 11 11 10 10 10 10 10 10 10 10 10 10 10 10 10
4 5 7 7 8 9 10 11 12 14 16 14 12 14 16 15 15 14 13 13 11 10 10 10 10 10 8 6 7 10 12 12 14 15 16 17 17 18 18 18 18 18 17 17 17 17 17 16 16 15 15 14 13 13 13 12 11 11 11 11 11 11 11 10 11 11 11 11 10 11 11 11 11 10 10 11 10 10 10 10 10 10 10 10 10 10
4 5 5 6 7 7 8 8 9 13 15 12 12 15 16 16 15 14 14 13 11 11 11 11 11 11 9 7 7 8 10 11 13 14 15 17 18 18 19 19 19 18 18 17 18 18 18 17 17 16 16 15 14 13 13 13 12 12 11 11 11 11 11 11 11 11 11 11 11 10 11 11 11 10 10 11 10 10 10 10 10 10 10 10 10 10
2 3 3 5 6 5 6 6 8 12 13 12 12 14 14 15 15 15 14 13 12 12 12 11 12 12 9 7 7 8 8 8 9 11 13 15 18 19 19 20 20 19 19 18 18 19 19 18 17 17 17 16 15 14 14 13 13 13 12 12 12 12 12 12 12 12 12 11 11 10 11 11 11 11 10 11 11 10 10 10 10 10 10 10 10 10
1 2 4 4 4 4 5 5 7 10 11 10 11 12 13 14 15 15 15 14 13 13 12 11 13 13 11 8 7 7 7 7 7 8 9 12 15 18 19 20 21 21 20 19 19 19 19 19 18 18 18 17 16 15 15 14 14 13 13 13 13 12 12 12 12 12 12 12 11 11 11 11 11 11 11 11 11 11 11 10 10 10 10 10 9 10
1 2 3 3 2 3 4 4 5 8 9 10 10 10 12 13 14 15 15 15 15 13 11 11 12 14 13 9 7 7 6 7 8 9 9 10 12 15 18 21 22 22 21 20 20 20 20 20 19 19 18 18 17 17 16 15 14 14 14 14 13 13 13 13 13 13 13 13 12 11 11 11 11 11 11 11 11 11 11 10 10 9 9 9 9 9
3 2 2 3 3 3 4 4 4 6 8 9 9 10 12 12 13 15 15 16 17 15 12 11 12 14 14 10 7 7 7 7 8 9 10 10 11 13 16 20 22 22 22 22 21 21 20 20 20 20 19 18 18 18 17 16 16 15 15 15 14 14 13 13 14 14 14 13 13 12 12 11 11 11 12 12 12 11 11 11 10 10 10 9 9 9
4 2 2 4 3 3 5 5 4 5 7 9 9 10 12 11 11 14 15 16 17 15 12 11 12 14 14 11 8 7 7 7 9 10 10 12 12 13 15 18 21 22 23 23 22 22 21 21 20 20 20 19 19 19 18 17 17 16 16 16 15 15 14 14 14 14 14 14 14 13 13 12 12 12 12 12 11 12 11 11 11 11 10 10 10 9
4 3 2 3 3 4 4 5 5 5 7 9 9 10 12 11 11 12 13 15 17 16 13 11 13 13 13 12 10 8 8 8 9 9 10 12 12 13 13 15 18 21 23 23 23 23 22 22 21 21 20 20 20 20 19 18 18 17 17 16 16 16 15 15 15 15 15 15 14 14 14 13 13 12 12 12 12 12 12 12 12 11 11 10 10 10
6 4 2 3 4 4 5 4 5 6 7 8 8 10 10 10 11 11 11 13 14 15 14 13 13 12 12 12 11 9 8 8 8 9 9 10 10 12 13 13 15 19 22 24 24 24 24 23 22 22 21 21 21 20 20 19 19 19 18 17 17 17 16 16 16 16 16 15 15 15 15 14 14 13 13 12 12 12 12 12 12 12 12 11 11 10
6 4 3 5 5 4 5 4 5 7 6 6 8 10 9 9 10 11 11 11 12 14 15 15 14 12 12 13 11 9 8 7 8 7 7 7 7 10 12 12 12 15 19 23 25 25 25 24 23 23 22 21 21 21 20 20 20 19 19 18 18 18 17 17 17 16 16 16 16 15 15 15 15 14 14 13 13 13 12 12 12 12 12 12 12 11
6 5 3 5 5 4 5 5 5 6 7 7 8 8 8 9 10 10 11 11 12 14 15 16 16 14 13 13 10 8 7 7 7 7 6 6 6 7 10 11 12 12 14 19 24 25 25 25 24 23 23 22 22 21 21 21 20 20 19 19 19 19 19 18 18 17 17 17 16 16 16 16 16 15 15 14 14 14 13 13 13 13 13 13 12 12
7 7 4 5 6 5 6 7 6 6 7 8 8 7 8 10 10 10 11 11 12 13 14 16 17 15 13 12 9 8 7 7 7 7 7 7 7 7 8 9 10 11 12 15 21 24 23 24 24 23 23 23 22 22 22 21 21 20 20 20 20 20 20 19 18 18 18 17 17 16 16 17 16 16 16 15 15 15 15 15 14 14 14 13 13 13
6 7 5 4 6 7 7 8 8 6 6 7 8 8 9 10 9 10 11 11 11 13 13 14 17 15 12 12 10 9 8 7 7 9 9 8 8 8 8 9 9 11 11 12 17 22 23 23 23 23 23 22 22 22 22 22 21 21 21 20 20 20 20 20 19 19 19 18 18 17 17 17 17 17 17 16 16 16 15 16 15 15 15 14 14 14
6 7 6 5 6 8 7 6 7 7 7 8 8 8 9 9 10 11 12 11 12 13 13 13 15 14 12 12 12 10 9 8 8 9 9 9 10 9 9 9 9 10 11 11 14 18 21 23 23 24 23 23 23 23 22 22 22 21 21 21 21 21 21 21 20 19 19 19 19 19 18 18 18 18 18 17 17 17 16 16 16 16 15 15 15 15
6 7 8 8 7 7 5 5 7 7 8 8 8 9 9 9 10 11 12 12 12 13 13 14 14 12 12 13 13 11 10 9 9 9 8 9 10 10 10 10 10 10 10 11 12 15 19 23 24 24 24 24 24 24 23 23 22 22 22 22 22 22 21 22 21 20 20 19 19 19 19 19 19 18 18 18 18 18 17 17 17 16 16 16 16 16
6 7 9 9 8 6 5 6 7 7 8 9 9 9 10 10 10 12 12 11 12 14 14 15 16 13 11 12 13 12 10 9 9 9 9 9 10 10 10 10 10 10 10 10 11 12 15 20 24 24 24 24 25 25 24 24 23 23 23 23 23 22 22 22 22 22 21 20 20 20 20 20 19 19 19 19 19 19 19 18 18 17 17 17 16 16
7 7 8 8 7 7 7 7 8 8 9 10 9 9 10 10 11 12 12 11 13 14 14 15 16 14 12 12 13 13 11 10 10 10 10 10 9 9 9 9 9 9 9 9 10 9 10 14 19 23 25 25 25 25 25 24 24 24 23 23 23 23 23 23 23 23 22 22 21 20 20 20 20 20 20 20 20 20 20 19 19 19 18 18 18 17
7 7 7 8 8 7 8 8 9 9 10 10 9 9 10 11 11 12 12 12 14 15 15 16 16 14 13 14 13 14 13 11 10 10 10 9 9 9 9 9 9 9 8 9 9 9 9 9 12 16 21 24 25 25 25 25 25 25 24 24 24 24 24 24 24 24 23 23 22 21 21 21 21 21 21 21 21 21 21 20 20 20 19 19 19 19
7 7 8 9 8 7 7 7 8 8 8 9 9 9 10 11 12 12 12 13 14 14 16 17 14 12 14 14 12 13 14 12 11 11 10 9 9 9 9 9 10 9 9 8 9 9 9 9 9 11 14 19 23 25 25 25 26 25 25 25 25 25 25 24 24 25 24 23 23 23 22 22 21 21 21 21 21 21 21 21 21 21 20 20 20 20
8 8 8 9 9 9 8 7 7 8 9 10 10 10 10 11 11 12 13 14 13 14 16 16 13 12 13 13 11 12 14 13 12 11 10 9 9 9 9 10 10 9 9 9 9 9 9 8 8 9 11 14 19 24 26 26 25 25 25 25 25 25 25 25 25 25 25 24 24 23 23 23 23 22 22 22 22 21 21 22 22 22 21 21 21 21
8 8 8 9 10 10 9 9 8 9 10 10 11 11 11 11 12 12 13 14 13 14 14 13 12 14 13 12 11 11 13 13 12 11 11 10 10 9 9 9 9 9 9 8 8 8 8 8 7 7 8 10 13 18 25 27 26 25 25 24 24 25 25 26 26 25 25 25 24 24 24 24 23 23 23 23 22 22 22 22 22 22 22 22 21 22
9 8 7 8 10 9 9 9 9 9 9 10 10 11 12 12 13 13 14 14 13 14 13 11 12 14 13 12 11 10 11 12 12 12 12 11 10 9 9 9 8 8 8 7 7 7 6 7 7 7 7 8 9 12 19 26 27 26 26 25 24 25 25 25 26 26 25 25 25 25 25 24 24 24 24 24 24 24 23 23 23 22 22 22 22 22
9 7 7 8 9 9 9 9 9 10 10 10 10 10 10 11 11 12 12 12 12 12 12 12 13 14 13 13 12 11 11 11 12 12 12 11 11 10 10 9 8 8 8 7 6 6 6 6 6 6 6 7 8 8 13 22 26 25 26 27 26 25 25 25 25 26 26 26 26 26 26 25 25 25 25 25 25 25 25 25 25 24 23 23 23 23
8 7 7 8 9 9 8 9 10 10 11 11 10 9 9 9 9 9 10 11 11 12 12 12 13 14 14 13 12 12 11 11 11 11 12 12 12 11 10 9 8 8 8 8 7 6 6 5 5 6 5 5 5 5 7 16 24 25 24 25 26 26 26 25 25 25 26 27 27 27 27 27 27 27 26 26 26 26 25 25 26 25 24 24 24 24
8 7 7 8 9 8 7 8 10 10 11 12 12 11 10 9 9 9 9 10 11 12 12 13 13 14 14 14 13 12 11 11 10 11 12 13 12 12 11 9 8 6 5 7 7 6 6 6 5 5 5 4 4 3 3 7 15 21 23 23 22 23 24 25 25 26 26 27 28 28 28 28 28 28 28 27 27 27 26 26 26 26 26 26 26 26
9 8 7 8 8 7 6 8 9 10 11 11 10 10 10 9 9 9 9 10 11 11 11 12 11 11 12 14 14 12 12 12 11 11 12 12 12 12 11 10 10 7 5 6 7 7 7 6 5 5 5 5 4 3 2 3 5 10 16 19 20 20 21 23 24 25 27 28 28 29 29 29 28 28 28 29 29 28 28 28 28 27 27 27 28 27
10 9 8 7 8 7 7 8 9 10 10 8 7 8 9 9 9 9 9 10 10 11 11 9 9 9 10 12 12 11 11 13 13 12 10 10 10 11 11 11 11 9 6 6 6 7 8 7 6 5 5 5 6 5 4 3 4 4 6 10 13 15 16 19 21 23 25 27 28 29 29 30 29 29 29 29 30 30 30 30 30 29 29 29 29 29
10 10 8 8 9 8 7 8 9 9 7 6 7 8 9 9 9 9 9 10 11 12 11 9 8 9 9 10 11 10 10 11 13 13 11 8 8 10 10 11 10 9 7 6 6 7 7 7 7 6 6 6 6 6 5 4 4 4 4 6 8 9 10 12 14 17 20 23 26 28 29 29 29 29 30 30 31 31 31 31 31 31 31 30 30 29
10 10 9 9 9 8 8 9 9 7 7 7 8 8 8 9 9 9 10 10 11 12 12 10 10 9 9 11 12 11 11 11 11 12 12 10 8 9 9 10 10 9 8 7 6 6 6 6 6 6 6 6 6 7 6 5 5 4 4 5 6 7 8 8 9 11 13 16 20 24 26 28 28 29 30 31 32 32 32 32 33 32 32 32 31 31
12 11 10 9 9 9 9 9 9 9 9 8 7 7 8 9 8 9 9 8 9 11 12 12 12 11 10 11 13 13 13 12 11 10 11 11 10 9 8 9 9 8 7 7 7 6 6 6 7 7 7 7 7 7 6 6 5 4 4 3 4 5 6 7 7 7 8 9 12 15 19 22 24 27 30 31 32 33 33 33 34 34 33 33 32 32
13 12 11 10 9 9 9 10 10 9 8 6 6 7 8 8 7 8 8 8 8 10 12 13 13 12 12 12 13 13 13 13 13 12 11 11 11 10 9 9 9 8 8 7 7 7 7 6 7 7 7 7 7 7 7 6 6 5 4 4 4 4 5 5 6 6 6 6 7 9 11 14 16 18 22 26 29 31 33 34 34 34 33 33 33 32
14 13 12 11 10 9 10 10 9 9 7 6 6 6 7 7 6 7 8 8 8 8 11 13 13 12 12 13 13 13 13 14 14 13 13 13 11 10 10 9 9 8 8 8 7 7 7 7 7 7 7 7 7 8 7 7 6 6 5 5 4 4 3 4 5 6 6 6 5 6 7 9 10 10 12 15 18 20 23 27 30 31 30 30 31 31
13 13 12 12 11 10 10 10 9 8 7 6 6 6 6 6 7 8 8 7 6 7 9 11 12 12 12 13 13 13 13 13 13 13 13 13 12 11 10 9 9 9 8 8 8 8 8 8 7 7 7 7 8 8 8 7 7 6 6 6 5 4 4 4 5 5 5 5 5 5 5 6 7 7 7 8 9 9 11 14 20 24 25 26 27 28
12 12 12 12 11 10 10 10 10 8 7 6 7 6 6 6 7 8 8 6 5 6 7 9 11 12 12 12 13 13 12 11 11 11 12 12 12 11 10 9 9 9 9 8 8 8 9 8 8 8 7 8 8 8 8 8 7 7 7 7 6 6 6 6 6 5 5 5 5 5 5 5 5 6 6 7 7 8 8 8 11 15 19 21 23 25
12 12 12 12 12 10 10 10 10 8 7 7 7 6 7 7 8 7 6 6 6 6 7 8 10 11 12 12 12 12 11 10 11 11 11 12 12 11 10 10 10 10 9 9 8 9 9 9 8 8 8 8 9 9 9 8 8 7 7 7 7 7 8 8 7 7 6 6 6 5 5 5 5 5 6 6 7 8 8 9 9 11 14 17 19 22
12 12 12 11 11 10 10 10 10 8 7 8 7 7 8 8 8 7 6 6 6 6 6 7 9 10 12 12 11 11 11 11 11 11 11 12 12 12 11 10 10 10 9 9 9 8 8 9 9 9 9 9 9 9 9 9 8 8 8 8 8 9 9 9 9 9 8 8 7 7 7 7 7 6 6 6 7 7 8 8 8 9 10 12 14 17
12 12 11 10 10 10 10 10 9 8 7 9 8 7 8 7 7 7 7 7 6 6 6 6 7 9 10 11 11 11 11 11 11 11 11 12 12 12 12 10 10 10 9 9 9 8 8 8 8 9 9 9 9 9 9 9 9 9 9 9 9 10 10 10 10 10 9 9 9 9 9 9 9 9 8 8 7 7 7 7 7 7 7 8 9 12
12 12 11 10 10 10 9 8 8 7 8 9 8 7 7 7 6 7 7 7 7 7 6 6 7 8 9 10 11 11 11 11 11 11 11 12 12 12 11 10 10 9 9 9 8 8 8 8 8 8 8 9 9 9 9 9 9 9 9 10 10 10 10 10 10 10 10 11 10 10 11 11 10 10 10 10 10 9 9 8 8 7 7 6 6 7
10 11 11 11 10 10 10 9 9 9 9 9 8 7 7 7 7 7 7 7 7 7 6 6 6 7 8 9 10 11 11 10 10 11 11 11 11 11 11 10 9 9 9 8 8 8 8 7 7 7 7 8 8 8 9 9 9 10 10 10 11 11 10 10 10 11 11 11 11 11 11 11 12 12 12 12 12 12 11 11 11 10 9 8 7 6
11 12 12 11 11 11 10 10 9 9 9 9 8 7 7 7 7 7 7 7 7 6 6 5 6 7 7 8 9 10 10 10 9 9 10 10 10 10 10 10 9 9 8 8 7 7 8 7 7 6 7 7 8 8 8 8 9 9 10 10 11 11 11 10 10 11 11 11 11 11 11 12 12 12 12 13 13 13 13 13 12 12 12 11 10 9
12 13 13 12 11 10 9 9 8 8 9 9 8 8 8 7 7 7 7 7 6 6 5 5 6 6 7 8 8 9 9 9 9 9 9 9 9 9 9 9 9 9 8 8 7 7 7 6 6 5 5 6 6 7 7 8 8 9 10 10 10 11 11 11 11 10 10 11 11 11 12 12 12 12 12 12 13 13 13 13 13 12 13 13 13 13
11 12 13 13 12 11 10 9 9 9 8 9 8 8 7 7 6 6 6 6 6 6 6 6 6 6 7 8 8 9 9 9 9 9 9 9 9 9 8 8 9 9 9 8 7 7 7 6 5 5 5 5 6 6 7 7 8 8 9 10 10 11 11 11 11 11 11 11 11 12 12 12 13 13 13 13 13 12 13 13 13 13 13 13 14 15
12 13 13 13 13 12 11 12 11 10 9 9 9 8 7 7 7 6 6 6 6 6 6 6 6 6 7 8 8 9 9 9 9 10 10 9 9 9 8 8 8 9 9 9 8 7 7 6 6 6 6 6 6 7 7 7 8 8 9 10 10 11 11 11 12 12 12 12 12 13 13 13 13 13 14 14 14 13 13 13 14 14 14 14 14 15
13 13 13 13 13 11 11 13 13 10 9 9 10 9 8 8 7 7 7 6 6 6 6 6 6 6 7 8 8 9 9 9 10 10 10 10 10 9 8 8 8 8 9 9 9 8 8 7 7 7 7 7 7 8 8 8 8 9 9 9 10 10 11 11 12 12 13 13 13 13 14 14 14 14 14 15 15 15 15 15 15 15 15 15 15 15
Wind_Direction
226 227 226 227 227 224 223 227 236 241 242 245 241 235 240 242 234 231 224 208 230 235 219 216 220 211 205 201 198 197 196 199 200 199 198 198 196 195 195 196 195 194 192 189 187 189 189 185 182 180 177 173 168 164 163 162 162 161 159 156 153 150 148 150 151 151 150 149 146 144 142 140 139 140 140 140 141 143 145 148 150 150 150 151 152 152
228 232 229 226 229 229 226 227 231 235 238 239 240 238 235 232 227 229 226 204 227 243 230 230 234 223 212 207 204 200 200 202 202 202 201 201 201 200 199 199 197 196 194 191 189 190 191 188 185 184 182 179 173 170 169 166 165 164 162 160 157 155 153 153 156 155 154 153 151 149 146 143 142 143 143 142 143 144 146 149 151 152 152 153 154 154
229 235 231 227 230 231 229 229 230 234 236 235 236 237 234 227 220 224 229 218 230 250 248 248 244 228 215 211 209 207 206 206 204 204 204 204 205 204 204 201 199 198 197 194 192 191 193 191 189 189 187 184 179 177 174 171 169 168 166 164 162 160 158 157 158 159 159 158 156 154 151 147 145 146 145 144 146 146 147 151 152 153 154 155 155 155
234 237 232 230 230 231 231 231 232 234 235 234 234 235 233 228 228 231 230 225 232 246 252 258 248 232 220 215 215 213 212 211 207 206 207 208 208 207 207 204 201 200 200 198 195 194 194 194 193 192 191 189 185 182 178 175 174 172 171 168 165 164 163 161 161 162 163 162 162 160 157 153 149 150 150 149 150 150 149 152 154 155 155 156 157 157
244 243 238 235 230 232 234 232 232 233 234 234 234 235 235 233 236 238 233 232 234 233 243 260 249 230 220 219 219 214 213 213 210 209 210 210 211 210 209 207 204 203 202 201 198 196 196 197 196 195 194 192 189 186 182 179 178 177 175 173 169 167 166 165 165 165 164 164 164 163 162 160 157 157 157 156 156 156 155 156 158 159 160 160 159 160
242 238 237 234 229 232 236 234 233 233 235 236 233 234 236 238 239 237 237 243 240 231 236 254 247 221 211 220 219 211 211 214 212 211 212 211 211 211 211 210 207 205 204 204 202 200 199 199 198 197 197 196 193 190 187 183 182 180 178 176 174 171 170 169 168 166 165 166 167 167 166 166 165 164 164 163 162 162 161 160 161 163 165 166 164 164
231 230 234 234 230 231 235 238 235 232 236 238 232 230 232 235 237 235 238 243 243 241 238 241 243 234 225 222 216 209 211 215 214 215 216 214 212 212 212 212 210 209 207 206 205 203 201 201 200 200 200 199 197 193 190 187 185 184 182 180 179 176 174 172 170 169 168 168 169 171 170 170 169 167 168 169 166 165 165 164 165 167 169 171 170 169
226 232 232 234 236 233 235 238 232 228 235 237 232 230 230 231 232 234 238 238 243 251 241 231 236 242 234 217 210 212 214 216 216 217 217 216 215 214 214 213 211 211 210 207 207 206 204 203 202 202 202 201 199 196 193 190 188 188 186 183 183 182 179 177 174 172 171 169 170 172 172 171 171 170 171 172 170 168 168 168 168 169 171 174 174 173
232 237 229 233 238 238 239 240 231 227 233 240 240 236 232 230 230 233 237 238 245 252 242 226 227 237 231 214 218 222 217 217 219 221 219 218 219 217 216 215 213 213 213 210 208 207 206 205 204 203 203 202 200 198 196 193 191 191 190 186 186 187 185 182 179 177 176 174 172 173 174 174 174 173 174 175 174 172 171 171 171 171 171 173 176 176
245 245 244 245 247 252 251 247 239 231 233 240 240 234 230 228 228 231 236 239 244 247 242 231 226 233 230 219 223 221 214 216 220 222 221 219 220 219 218 217 215 214 214 212 209 208 207 206 205 204 204 204 202 200 199 197 194 194 194 191 190 190 189 187 183 181 181 180 178 178 178 178 178 177 176 175 176 176 175 174 174 174 173 173 175 177
268 238 248 252 260 269 256 246 242 235 232 232 230 227 226 225 227 230 233 238 242 239 237 235 232 233 232 224 221 215 214 224 230 232 232 228 225 222 219 217 216 215 214 213 211 208 207 206 205 205 205 205 203 202 201 200 197 196 197 196 193 193 193 191 189 187 186 186 185 184 183 183 182 181 179 178 178 178 178 177 176 176 176 175 175 177
193 215 236 238 269 276 243 232 241 234 227 226 227 225 225 226 228 232 232 234 237 234 232 239 238 235 232 225 223 225 229 240 245 248 246 241 236 228 222 218 216 215 213 213 212 209 208 207 205 205 206 206 205 204 203 202 201 199 200 200 197 196 196 195 194 193 192 191 191 190 190 189 187 185 184 183 182 182 182 183 182 181 181 180 180 180
210 230 256 225 246 274 247 230 230 226 225 227 226 224 227 228 229 233 232 230 233 232 233 244 242 235 231 225 227 238 245 248 251 254 250 245 241 235 227 220 216 215 213 212 212 210 209 208 207 206 207 206 206 206 206 205 204 203 203 203 201 200 199 198 198 197 197 196 196 196 195 195 193 192 190 189 188 188 188 189 188 188 187 187 187 187
217 221 256 237 238 269 264 249 231 224 228 228 224 225 229 232 232 235 232 229 231 228 230 242 239 234 231 227 232 245 250 255 259 261 259 253 245 237 230 220 215 215 214 212 212 211 210 209 209 209 208 207 207 209 209 207 206 205 206 206 204 203 202 201 201 201 201 201 200 200 199 199 199 198 197 195 194 194 194 194 195 194 193 194 194 194
250 243 270 264 263 274 273 266 259 249 235 228 226 230 237 241 240 240 237 232 231 227 228 235 234 233 232 228 236 249 250 258 268 268 265 261 248 234 226 220 215 215 215 214 212 212 212 210 210 210 209 209 210 210 210 210 208 208 209 209 207 205 204 203 204 204 204 205 204 203 203 203 203 203 202 202 201 201 200 199 200 199 199 199 200 200
262 267 291 276 270 278 280 271 263 259 242 228 229 234 241 248 247 247 247 242 238 234 231 231 230 231 231 228 236 248 250 256 270 274 271 267 251 229 218 217 218 217 216 216 214 213 213 212 211 211 211 212 212 212 211 211 210 211 212 212 210 208 207 206 206 206 207 208 208 207 206 206 207 206 206 206 206 206 205 203 203 204 205 205 205 206
256 256 265 263 257 266 279 272 254 255 250 233 233 237 241 253 255 251 246 239 239 238 231 228 231 233 231 228 230 242 252 259 266 273 272 268 254 228 215 215 221 221 219 219 216 214 214 214 213 212 213 214 213 213 212 212 213 213 214 213 212 211 210 209 208 208 209 210 210 210 210 210 210 209 208 208 209 209 209 209 208 208 209 210 211 212
270 263 254 260 258 252 263 266 253 251 254 248 245 242 241 249 250 247 243 235 234 238 230 225 229 232 230 226 228 243 260 265 265 268 267 262 254 234 219 217 220 222 225 222 217 214 214 214 214 214 215 216 215 213 213 214 215 215 214 214 213 212 213 212 211 211 211 212 213 213 213 213 213 213 213 212 212 212 212 213 213 212 213 214 215 215
273 265 247 252 264 262 254 255 252 247 254 259 255 242 240 245 241 235 239 240 237 239 234 225 225 229 230 228 235 252 261 265 269 267 262 257 254 246 235 230 224 222 228 225 216 213 214 214 215 215 216 216 216 215 214 215 216 215 215 215 214 214 214 214 214 214 214 214 214 215 216 216 216 217 217 216 216 215 215 216 216 216 217 217 218 218
270 266 256 248 264 269 257 252 254 250 252 256 250 240 241 249 249 241 240 244 243 242 239 230 226 226 227 231 238 249 254 261 268 263 256 252 253 252 247 245 237 227 228 227 218 215 215 215 215 216 217 216 215 215 215 215 216 216 216 216 215 215 215 216 216 216 216 216 216 217 218 218 219 219 220 220 219 218 218 218 218 219 220 220 220 220
267 262 264 269 267 263 256 257 262 258 254 254 249 245 243 243 248 250 244 241 244 244 238 233 231 224 222 232 239 244 248 253 260 261 257 252 251 249 246 248 249 240 233 230 224 221 219 218 217 217 218 218 217 216 216 216 217 217 217 217 217 216 217 218 218 218 219 219 219 219 220 220 221 222 222 222 222 222 221 221 221 222 223 223 223 222
273 262 268 277 272 260 255 264 267 260 256 257 254 252 252 248 247 248 245 239 241 244 238 235 236 228 226 236 240 242 246 249 256 261 258 252 248 247 246 247 249 248 241 235 232 230 225 222 220 220 219 220 219 217 217 217 217 218 220 221 220 219 219 220 220 219 220 221 222 222 223 223 223 224 224 224 224 224 225 225 224 224 225 225 225 225
279 269 268 273 274 270 263 261 261 259 257 258 256 253 253 253 248 248 251 247 242 242 240 238 238 233 234 241 239 239 246 251 255 257 253 248 246 246 248 247 243 245 245 237 233 235 231 225 223 223 222 221 221 220 219 218 219 220 221 222 222 221 221 222 221 221 221 222 224 224 225 226 226 226 226 227 227 227 227 227 227 227 227 227 227 227
272 269 266 269 270 265 259 256 255 258 259 255 252 252 254 256 255 253 255 254 247 241 236 238 239 234 240 246 240 237 244 249 250 249 248 248 244 240 242 242 239 239 241 236 231 235 236 228 226 227 225 222 222 221 220 219 219 221 222 222 223 223 223 223 222 222 223 224 225 225 225 227 228 228 228 229 229 229 229 229 229 229 229 229 229 229
269 266 265 266 262 253 253 253 248 250 255 254 253 257 259 260 258 255 254 252 248 241 236 241 243 237 240 246 243 239 240 242 245 244 244 245 240 236 235 234 234 234 234 232 230 231 233 228 227 228 227 225 224 222 221 221 221 224 224 224 225 225 224 224 224 224 225 226 226 226 226 227 228 229 230 230 231 231 231 231 231 230 230 230 230 230
269 265 263 265 265 263 266 263 255 253 254 252 254 259 261 261 259 257 254 249 246 241 237 243 246 237 235 241 244 241 238 236 239 241 241 240 235 234 232 230 230 231 230 227 226 228 229 227 226 226 227 228 226 224 223 223 223 225 226 226 227 227 226 225 226 226 226 227 228 228 228 228 229 229 230 231 232 232 232 232 233 232 232 231 231 231
266 261 259 263 267 275 284 283 273 266 258 254 254 255 258 262 262 261 258 255 256 252 242 240 239 232 230 234 238 240 237 234 235 237 239 239 236 232 230 227 225 225 226 223 222 224 225 227 228 229 231 232 230 227 224 223 224 225 226 228 228 228 228 227 227 228 228 228 229 229 229 230 231 231 231 232 233 233 233 233 233 233 233 232 232 232
263 257 252 256 262 270 278 278 273 267 262 259 258 258 260 261 260 258 255 255 260 258 247 240 236 230 226 229 231 231 232 233 235 236 237 239 236 231 229 227 221 218 219 220 222 224 224 226 230 233 235 238 240 234 226 224 224 224 225 228 230 230 230 229 227 228 229 230 230 231 232 233 233 233 233 233 234 235 236 236 235 235 234 233 233 233
265 258 249 255 261 265 269 270 267 265 263 262 263 263 265 265 261 257 251 250 253 253 249 248 242 231 226 229 229 225 226 230 234 237 237 238 236 230 230 232 226 219 218 219 222 225 227 232 236 241 244 244 251 249 232 223 223 225 226 229 231 232 233 233 230 229 231 232 233 233 234 235 234 234 235 236 236 237 238 238 238 236 236 235 234 234
265 258 252 261 264 261 264 266 263 261 261 262 265 266 267 268 266 259 252 248 250 250 249 247 239 230 230 234 228 224 227 227 229 236 240 238 234 228 227 232 233 228 224 223 224 226 230 236 240 246 255 251 255 268 246 226 223 226 229 230 232 233 234 236 236 233 233 235 236 237 237 237 237 237 238 238 238 239 239 240 240 239 238 237 237 236
261 256 251 262 263 255 258 264 261 260 260 258 260 261 261 262 262 257 251 246 246 248 247 245 237 230 233 235 229 229 233 228 225 233 240 236 230 225 221 224 231 231 224 224 226 227 230 238 244 248 260 264 260 280 266 232 225 227 229 230 234 236 236 238 240 238 237 237 238 238 239 239 239 240 240 240 240 240 240 241 243 244 243 240 239 239
253 252 248 257 261 252 254 265 263 260 260 257 255 254 252 255 260 258 253 251 253 252 247 245 242 236 233 233 232 234 237 231 223 226 235 233 224 218 216 213 217 223 223 224 228 231 235 242 251 254 260 271 269 276 282 239 228 229 230 230 233 236 238 240 241 240 240 239 240 240 240 240 240 242 242 242 242 242 241 242 244 245 245 244 242 240
249 251 249 254 261 257 257 269 268 261 259 257 254 252 251 257 262 259 255 253 253 251 249 249 246 239 234 232 231 233 231 227 221 221 232 234 221 211 210 206 209 218 228 226 226 231 237 240 247 256 261 265 267 266 261 237 228 230 230 231 234 238 241 242 242 242 241 241 241 241 241 241 241 242 243 243 243 243 243 243 243 244 246 246 244 242
244 249 250 253 262 262 261 269 267 260 258 256 255 257 257 258 259 258 257 253 249 249 252 253 242 232 230 229 228 224 219 219 218 215 224 235 222 209 205 206 211 218 227 230 229 231 235 239 242 251 259 259 258 261 256 236 226 226 226 228 232 238 242 244 245 245 244 243 243 242 242 242 242 243 244 244 244 244 244 244 245 245 246 246 245 244
240 244 248 251 259 262 263 264 260 258 258 256 257 259 257 258 259 261 261 255 250 249 246 240 234 231 228 222 219 216 212 212 211 209 215 228 224 210 205 207 212 218 224 232 235 234 237 242 244 247 254 258 255 255 257 249 239 234 231 229 232 237 242 246 248 250 250 247 245 243 242 242 243 244 245 246 246 246 245 245 246 246 246 245 246 245
241 243 245 249 256 259 259 256 257 268 269 257 254 254 252 253 255 258 260 253 246 245 240 234 232 231 226 217 214 217 219 215 209 208 214 223 226 218 211 210 215 222 227 233 237 240 243 245 246 248 250 255 260 260 258 254 246 238 236 240 243 244 246 250 254 256 256 253 248 244 243 244 245 247 248 247 247 248 247 247 247 246 245 246 246 246
243 245 244 247 250 255 258 255 259 273 270 254 249 252 252 253 254 259 265 258 244 241 240 237 234 233 230 223 216 216 220 219 215 215 218 223 227 226 220 216 218 223 228 233 237 243 247 249 250 252 253 256 262 266 262 253 245 241 237 241 249 250 250 254 258 261 261 259 252 247 245 246 249 251 250 249 249 249 249 248 247 246 245 246 246 246
241 243 244 245 245 250 259 260 259 265 263 254 255 256 253 255 257 261 267 262 249 242 239 237 235 233 231 227 221 219 221 222 222 221 222 224 226 226 223 220 219 221 225 230 235 241 247 252 253 254 256 260 262 263 260 251 242 240 240 242 247 247 250 258 265 268 269 265 256 249 247 248 254 257 254 251 251 251 250 249 247 246 246 246 246 246
236 237 240 244 245 247 254 258 258 259 259 257 260 255 248 248 251 258 264 261 254 245 237 234 233 230 228 226 223 223 226 228 227 224 223 224 226 226 224 221 220 220 222 228 233 239 244 251 255 256 258 263 265 263 259 253 245 242 243 246 247 244 251 266 271 272 273 271 263 255 250 252 260 266 260 253 251 252 253 251 245 243 244 245 244 245
229 231 234 239 243 244 248 254 258 258 255 252 251 248 245 246 249 256 263 262 252 242 235 232 230 229 229 228 226 227 232 233 229 224 222 223 225 225 224 224 224 224 225 229 233 237 242 249 256 261 263 265 268 266 261 256 252 250 250 252 254 254 257 264 268 268 269 270 271 273 268 262 265 267 261 252 249 252 262 257 243 237 242 244 243 242
225 228 233 238 242 242 246 253 256 254 249 243 243 244 242 245 252 258 263 262 249 242 239 236 232 230 230 230 230 232 235 233 225 220 219 220 221 221 222 223 226 228 230 233 236 238 241 247 255 260 261 264 268 269 265 260 258 259 260 261 263 263 260 260 263 265 265 264 268 278 282 277 274 270 262 258 256 256 268 270 251 242 245 246 243 241
225 228 232 237 240 241 245 251 252 251 248 240 238 241 242 247 256 260 261 259 252 249 249 244 237 232 230 231 233 233 230 226 220 219 220 221 220 220 222 223 225 228 229 233 237 239 241 244 251 256 259 262 266 268 267 265 264 266 268 271 272 269 264 262 263 265 267 266 264 268 274 274 274 273 269 270 271 271 273 275 269 261 255 250 244 241
226 228 231 233 236 239 243 246 249 252 245 230 228 240 247 251 257 254 250 255 256 254 253 247 240 234 231 229 230 229 224 221 220 220 221 222 220 221 223 224 225 227 229 233 238 240 241 243 248 254 258 261 264 264 264 266 268 269 272 276 276 272 269 266 265 263 266 269 268 267 268 269 269 268 271 278 282 283 285 284 281 276 268 259 252 247
227 230 233 231 231 238 242 243 246 249 236 226 234 250 251 250 255 252 249 254 255 254 255 249 240 235 232 228 225 223 219 217 218 219 221 223 222 222 223 223 224 226 229 233 237 240 242 245 248 253 258 261 262 261 261 263 266 268 271 274 274 273 271 269 266 264 265 268 270 270 269 271 272 269 271 277 280 282 287 291 292 292 287 276 267 258
231 234 239 236 232 239 247 247 246 246 235 232 246 260 252 245 251 253 252 252 252 254 257 250 238 233 232 227 221 218 215 214 214 215 218 221 222 221 221 220 222 224 227 230 235 239 243 247 251 256 260 262 262 261 261 262 263 266 269 271 272 272 272 270 268 269 269 269 270 271 271 273 274 273 272 275 278 282 285 286 288 292 294 290 284 274
235 236 239 239 236 240 247 246 244 243 237 235 246 255 250 245 246 248 249 249 250 252 254 247 235 229 228 225 219 215 212 210 211 213 214 216 217 217 216 217 220 224 226 228 234 239 243 248 254 259 263 266 266 264 263 264 264 265 267 268 269 270 270 270 271 271 272 272 271 272 273 274 275 276 277 277 278 280 281 282 281 281 281 280 279 277
233 234 236 236 235 238 242 239 237 237 233 233 239 244 244 243 243 245 247 247 246 245 244 239 231 226 224 222 216 211 208 207 208 210 210 212 212 211 213 215 216 219 222 225 230 237 241 247 253 258 263 266 267 268 268 266 265 266 266 266 267 267 268 270 271 271 271 272 272 272 273 274 275 277 278 278 279 279 278 279 278 275 273 271 269 268
230 231 234 234 233 237 239 233 230 232 231 232 236 237 235 235 237 241 243 239 236 236 233 228 226 223 219 215 209 205 205 206 206 205 206 207 207 206 208 210 211 213 216 220 226 231 235 241 246 251 258 262 264 267 269 268 267 267 267 266 266 266 267 269 270 270 270 271 272 272 274 275 276 276 277 278 279 280 280 279 278 276 273 271 268 266
227 227 232 233 232 235 236 229 225 228 229 230 233 231 227 226 226 229 230 227 224 224 222 220 221 220 214 209 204 202 202 204 205 204 203 203 204 203 204 206 208 211 213 217 222 225 228 232 238 246 254 259 263 266 269 271 271 269 269 269 268 267 268 270 271 272 271 271 272 273 273 274 276 276 276 277 278 280 281 281 281 278 276 273 272 270
230 229 231 232 233 236 233 222 220 228 233 228 226 223 218 218 219 219 219 218 216 216 213 210 211 213 210 206 204 203 203 204 204 203 202 202 202 202 203 205 208 210 212 215 218 221 224 231 239 246 254 260 264 267 269 271 273 273 272 272 272 271 271 271 272 274 274 274 274 274 274 274 275 275 274 274 275 276 277 279 281 281 279 277 276 275
233 231 230 232 234 237 229 214 215 231 238 224 217 215 214 215 216 213 212 211 209 209 209 205 204 205 206 206 207 206 204 203 202 202 202 202 202 202 205 209 212 214 215 218 221 223 228 236 243 249 256 262 266 270 271 271 273 275 276 277 277 276 276 275 275 276 277 278 278 278 277 276 276 276 275 274 273 273 273 274 277 279 280 278 276 275